Waarnemingen

Advertentie
Mijn weer
Norderney, Duitsland (10113): temperatuur & dauwpunt: 18.04.2018 08:00:00 - 24.04.2018 08:00:00 (CEST)Norderney, Duitsland (10113): temperatuur 5cm & temperatuur -5cm: 18.04.2018 08:00:00 - 24.04.2018 08:00:00 (CEST)Norderney, Duitsland (10113): temperatuur -20cm & temperatuur -100cm: 18.04.2018 08:00:00 - 24.04.2018 08:00:00 (CEST)Norderney, Duitsland (10113): windsnelheid & windstoten: 18.04.2018 08:00:00 - 24.04.2018 08:00:00 (CEST)Norderney, Duitsland (10113): windrichting: 18.04.2018 08:00:00 - 24.04.2018 08:00:00 (CEST)Norderney, Duitsland (10113): luchtdruk: 18.04.2018 08:00:00 - 24.04.2018 08:00:00 (CEST)Norderney, Duitsland (10113): zicht: 18.04.2018 08:00:00 - 24.04.2018 08:00:00 (CEST)Norderney, Duitsland (10113): Zonneschijnduur: 18.04.2018 08:00:00 - 24.04.2018 08:00:00 (CEST)Norderney, Duitsland (10113): neerslag: 18.04.2018 08:00:00 - 24.04.2018 08:00:00 (CEST)
Datum & Tijd tt [°C] td [°C] tt 5cm [°C] tt -5cm [°C] tt -20cm [°C] tt -100cm [°C] ff [km/u] ff [kn] fx [km/u] fx [kn] dd ppp [hPa] vv [km] sd [min] rr [mm]
24.04.2018 08:00:00 11,1 9,6 10,4 12,8 14,0 11,6 26 14 44 24 ZW 1010,8 12 0 0,0
24.04.2018 07:00:00 11,1 9,5 10,6 12,9 14,2 11,6 25 13 44 24 ZW 1010,4 13 0 0,0
24.04.2018 06:00:00 10,8 9,5 10,1 13,2 14,4 11,6 29 16 45 24 ZW 1010,7 8 0 0,0
24.04.2018 05:00:00 11,2 8,4 11,0 13,3 14,6 11,6 29 16 51 28 ZW 1011,0 21 0 0,0
24.04.2018 04:00:00 11,1 8,1 10,8 13,4 14,8 11,5 28 15 47 25 ZW 1011,2 25 0 0,0
24.04.2018 03:00:00 11,1 7,8 10,6 13,7 15,0 11,5 27 14 45 24 ZW 1011,6 25 0 0,0
24.04.2018 02:00:00 11,3 7,6 10,9 13,9 15,3 11,5 23 12 40 22 ZZW 1012,2 25 0 0,0
24.04.2018 01:00:00 11,4 7,7 11,0 14,3 15,6 11,5 21 11 35 19 ZZW 1013,1 23 0 0,0
24.04.2018 00:00:00 11,5 7,2 11,0 14,6 16,0 11,5 21 11 38 20 ZW 1013,8 32 0 0,0
23.04.2018 23:00:00 11,3 7,0 10,6 15,0 16,3 11,5 14 7 25 13 ZW 1014,0 42 0 0,0
23.04.2018 22:00:00 11,2 5,5 10,7 15,6 16,8 11,5 17 9 34 19 WZW 1014,1 49 0 0,0
23.04.2018 21:00:00 10,9 5,6 10,6 16,5 17,2 11,5 24 13 40 22 W 1014,3 39 4 0,0
23.04.2018 20:00:00 10,5 6,5 10,2 17,8 17,5 11,5 26 14 39 21 W 1014,3 22 34 0,0
23.04.2018 19:00:00 10,6 7,0 11,1 19,4 17,6 11,5 26 14 42 23 W 1014,5 12 60 0,0
23.04.2018 18:00:00 10,7 7,1 12,4 20,6 17,5 11,5 27 14 40 22 W 1014,6 15 60 0,0
23.04.2018 17:00:00 11,2 7,0 13,9 21,2 17,3 11,4 32 17 44 24 W 1014,3 11 60 0,0
23.04.2018 16:00:00 11,8 7,6 15,0 21,2 16,9 11,4 30 16 41 22 W 1014,2 13 59 0,0
23.04.2018 15:00:00 11,2 7,7 14,0 20,8 16,4 11,4 29 15 42 23 W 1014,0 9 60 0,0
23.04.2018 14:00:00 11,6 7,8 15,2 20,0 15,9 11,4 29 16 41 22 W 1013,6 6 60 0,0
23.04.2018 13:00:00 12,2 7,9 15,4 18,9 15,4 11,4 29 16 46 25 W 1013,3 14 59 0,0
23.04.2018 12:00:00 12,2 7,8 15,6 17,8 14,9 11,4 29 16 43 23 W 1012,9 8 60 0,0
23.04.2018 11:00:00 12,9 7,7 15,8 16,3 14,6 11,4 23 12 31 17 W 1012,2 11 60 0,0
23.04.2018 10:00:00 11,5 8,7 14,2 14,7 14,5 11,4 22 12 29 16 W 1011,6 12 40 0,0
23.04.2018 09:00:00 10,4 8,7 13,0 13,6 14,6 11,3 22 12 35 19 W 1010,7 9 59 0,0
23.04.2018 08:00:00 9,9 8,8 10,4 13,4 14,8 11,3 18 10 33 18 W 1009,8 4,2 17 0,0
23.04.2018 07:00:00 9,9 8,7 9,7 13,6 15,1 11,3 21 11 40 21 W 1009,1 3,4 0 0,0
23.04.2018 06:00:00 10,7 9,8 10,6 14,0 15,4 11,3 24 13 33 18 W 1008,9 4,1 0 0,0
23.04.2018 05:00:00 12,2 10,5 11,8 14,2 15,7 11,3 18 10 31 17 WZW 1008,5 6 0 0,0
23.04.2018 04:00:00 12,1 9,9 11,3 14,3 16,1 11,3 14 8 24 13 WZW 1008,3 8 0 0,0
23.04.2018 03:00:00 10,6 8,7 9,4 15,0 16,5 11,2 11 6 23 12 W 1007,9 7 0 0,0
23.04.2018 02:00:00 12,3 9,5 11,2 15,9 16,8 11,2 16 9 31 17 W 1008,1 9 0 0,0
23.04.2018 01:00:00 15,6 13,0 14,3 16,6 17,2 11,2 15 8 30 16 ZZW 1007,8 8 0 0,0
23.04.2018 00:00:00 16,0 12,9 15,0 17,3 17,5 11,2 21 11 32 17 Z 1007,8 17 0 0,0
22.04.2018 23:00:00 17,3 13,7 16,7 18,0 17,9 11,2 21 11 37 20 Z 1007,8 12 0 0,0
22.04.2018 22:00:00 17,8 13,5 16,7 18,8 18,2 11,2 18 10 44 24 Z 1007,9 13 0 0,0
22.04.2018 21:00:00 19,1 13,2 17,5 19,9 18,5 11,2 10 5 18 10 ZO 1007,7 22 3 0,0
22.04.2018 20:00:00 19,4 12,3 18,5 21,4 18,6 11,2 7 4 18 10 O 1007,7 27 18 0,0
22.04.2018 19:00:00 22,5 12,2 22,9 22,9 18,4 11,2 12 6 24 13 OZO 1007,9 26 45 0,0
22.04.2018 18:00:00 21,9 11,9 23,8 23,3 18,0 11,2 12 6 19 10 ZO 1008,5 24 51 0,0
22.04.2018 17:00:00 17,9 11,0 19,7 23,6 17,6 11,2 14 7 26 14 ONO 1009,3 17 60 0,0
22.04.2018 16:00:00 16,6 9,9 19,0 23,8 16,9 11,2 22 12 30 16 ONO 1010,3 17 58 0,0
22.04.2018 15:00:00 21,5 9,0 24,9 22,9 16,0 11,2 16 9 34 18 OZO 1011,0 18 60 0,0
22.04.2018 14:00:00 20,2 7,7 23,3 21,6 15,2 11,2 18 10 34 18 OZO 1011,8 38 59 0,0
22.04.2018 13:00:00 19,5 9,1 22,8 20,0 14,3 11,2 14 8 30 16 O 1012,8 16 60 0,0
22.04.2018 12:00:00 18,0 8,1 21,7 17,5 13,6 11,2 15 8 31 17 OZO 1013,7 14 43 0,0
22.04.2018 11:00:00 15,9 7,0 19,1 15,5 13,1 11,2 18 10 29 16 ZO 1014,5 30 60 0,0
22.04.2018 10:00:00 13,4 6,7 15,2 13,3 12,8 11,2 18 10 30 16 OZO 1014,7 35 60 0,0
22.04.2018 09:00:00 11,2 6,0 12,6 11,5 12,8 11,2 14 8 25 13 OZO 1015,6 26 60 0,0
22.04.2018 08:00:00 9,7 6,6 9,6 10,8 13,0 11,1 13 7 20 11 ZO 1016,4 13 35 0,0
22.04.2018 07:00:00 8,1 6,7 7,1 10,5 13,3 11,1 11 6 17 9 OZO 1016,6 6 0 0,0
22.04.2018 06:00:00 7,7 5,9 6,1 10,8 13,7 11,1 10 5 13 7 OZO 1017,2 15 0 0,0
22.04.2018 05:00:00 8,1 6,2 6,6 11,2 14,0 11,1 9 5 16 9 OZO 1017,7 16 0 0,0
22.04.2018 04:00:00 8,7 6,5 7,1 11,6 14,4 11,1 9 5 17 9 ZO 1018,4 16 0 0,0
22.04.2018 03:00:00 8,2 6,6 6,7 12,0 14,9 11,1 11 6 14 8 OZO 1018,7 19 0 0,0
22.04.2018 02:00:00 8,2 6,5 6,5 12,5 15,4 11,0 7 4 11 6 O 1019,6 20 0 0,0
22.04.2018 01:00:00 8,2 6,5 6,5 13,2 15,9 11,0 8 4 12 6 O 1020,1 12 0 0,0
22.04.2018 00:00:00 8,3 6,5 7,1 14,0 16,5 11,0 9 5 11 6 ONO 1020,5 20 0 0,0
21.04.2018 23:00:00 9,3 7,3 7,8 14,9 17,1 11,0 8 5 9 5 NO 1020,7 17 0 0,0
21.04.2018 22:00:00 10,0 7,0 7,8 16,2 17,8 11,0 4 2 6 3 ONO 1021,0 21 0 0,0
21.04.2018 21:00:00 10,5 7,9 8,1 17,8 18,3 11,0 3 2 5 3 NNO 1021,2 33 17 0,0
21.04.2018 20:00:00 10,8 8,1 10,4 20,0 18,6 11,0 3 2 7 4 NNO 1021,3 25 60 0,0
21.04.2018 19:00:00 11,4 7,8 13,2 22,1 18,7 11,0 4 2 9 5 N 1021,8 22 60 0,0
21.04.2018 18:00:00 10,6 7,2 14,5 23,3 18,4 11,0 7 4 10 6 N 1022,2 20 60 0,0
21.04.2018 17:00:00 10,8 7,1 16,7 24,0 18,0 11,0 8 5 11 6 N 1022,7 39 60 0,0
21.04.2018 16:00:00 11,1 7,0 17,9 24,0 17,3 11,0 7 4 11 6 N 1023,4 16 59 0,0
21.04.2018 15:00:00 10,8 7,0 18,4 23,3 16,5 10,9 7 4 11 6 NNW 1023,7 16 60 0,0
21.04.2018 14:00:00 10,9 6,8 18,7 22,1 15,6 10,9 8 4 11 6 WNW 1023,9 19 60 0,0
21.04.2018 13:00:00 11,3 7,3 18,6 20,2 14,7 10,9 5 3 10 5 NNW 1024,0 20 60 0,0
21.04.2018 12:00:00 10,7 6,5 18,1 18,0 14,0 10,9 7 4 11 6 NNW 1024,3 15 60 0,0
21.04.2018 11:00:00 10,9 7,2 15,7 15,6 13,5 10,9 10 5 18 10 NW 1024,0 20 60 0,0
21.04.2018 10:00:00 10,2 7,4 14,8 13,4 13,3 10,8 12 6 20 11 NNW 1023,7 18 60 0,0
21.04.2018 09:00:00 9,4 7,8 12,1 11,8 13,4 10,8 16 9 19 11 NNW 1023,2 18 60 0,0
21.04.2018 08:00:00 8,9 7,5 9,0 11,1 13,6 10,8 9 5 17 9 NNW 1022,9 12 59 0,0
21.04.2018 07:00:00 8,4 7,6 7,0 11,1 14,0 10,8 11 6 17 9 NNW 1022,6 10 9 0,0
21.04.2018 06:00:00 8,2 7,5 6,8 11,5 14,4 10,7 15 8 23 12 NNW 1022,2 7 0 0,0
21.04.2018 05:00:00 8,3 7,5 7,2 12,0 14,8 10,7 17 9 24 13 NNW 1022,3 4,9 0 0,0
21.04.2018 04:00:00 8,5 7,6 7,5 12,4 15,3 10,7 22 12 27 14 NNW 1022,1 4,4 0 0,0
21.04.2018 03:00:00 8,3 7,3 7,3 13,0 15,7 10,6 17 9 25 13 NW 1022,2 2,8 0 0,0
21.04.2018 02:00:00 8,6 7,7 7,6 13,6 16,2 10,6 16 8 26 14 NNW 1022,1 2,2 0 0,0
21.04.2018 01:00:00 8,9 7,7 8,1 14,3 16,8 10,6 23 13 29 16 NNW 1022,0 1,9 0 0,0
21.04.2018 00:00:00 9,8 7,8 9,0 15,1 17,3 10,6 23 12 27 14 NW 1021,8 2,3 0 0,0
20.04.2018 23:00:00 10,7 7,8 9,5 16,0 17,9 10,5 10 6 16 9 NW 1021,5 2,9 0 0,0
20.04.2018 22:00:00 11,1 8,1 9,8 17,0 18,6 10,5 13 7 16 9 NNW 1021,6 3,0 0 0,0
20.04.2018 21:00:00 11,1 8,5 10,0 18,5 19,2 10,5 10 5 17 9 NNW 1021,2 2,5 4 0,0
20.04.2018 20:00:00 11,4 8,4 11,2 20,5 19,6 10,5 10 5 16 8 WNW 1021,0 3,1 60 0,0
20.04.2018 19:00:00 12,1 8,0 13,8 22,7 19,8 10,4 13 7 19 10 WNW 1021,1 3,5 60 0,0
20.04.2018 18:00:00 12,6 7,7 15,6 24,3 19,6 10,4 11 6 19 10 W 1021,4 4,2 60 0,0
20.04.2018 17:00:00 13,4 7,2 19,1 25,2 19,2 10,4 8 5 19 10 W 1021,4 4,8 60 0,0
20.04.2018 16:00:00 14,9 7,0 19,8 25,3 18,6 10,4 10 5 14 8 W 1021,5 6 59 0,0
20.04.2018 15:00:00 17,1 7,2 22,4 24,6 18,0 10,3 12 6 20 11 WZW 1021,9 7 60 0,0
20.04.2018 14:00:00 14,0 8,0 19,1 23,4 17,3 10,3 14 7 23 13 W 1022,1 5 60 0,0
20.04.2018 13:00:00 15,4 7,7 20,4 22,1 16,6 10,3 15 8 26 14 WZW 1022,1 5 60 0,0
20.04.2018 12:00:00 15,5 8,0 19,7 20,5 16,0 10,2 16 9 32 18 WZW 1021,9 7 60 0,0
20.04.2018 11:00:00 17,3 11,0 20,6 18,8 15,4 10,2 13 7 29 15 WZW 1021,7 9 60 0,0
20.04.2018 10:00:00 16,9 10,6 19,0 16,7 15,2 10,2 17 9 30 16 ZZW 1021,4 10 60 0,0
20.04.2018 09:00:00 16,2 9,9 17,0 15,2 15,2 10,1 20 11 30 16 Z 1021,3 13 60 0,0
20.04.2018 08:00:00 15,5 9,6 15,4 14,4 15,4 10,1 15 8 27 15 Z 1021,4 12 60 0,0
20.04.2018 07:00:00 15,2 10,1 14,0 14,4 15,7 10,0 16 9 24 13 ZZO 1021,4 10 5 0,0
20.04.2018 06:00:00 15,4 10,2 14,0 14,7 16,0 10,0 18 10 26 14 ZZO 1021,7 10 0 0,0
20.04.2018 05:00:00 16,1 10,2 14,6 15,1 16,4 10,0 19 10 29 16 ZZO 1022,2 11 0 0,0
20.04.2018 04:00:00 16,2 10,4 14,5 15,5 16,7 9,9 14 8 22 12 ZZO 1022,8 12 0 0,0
20.04.2018 03:00:00 16,7 10,5 14,9 16,0 17,1 9,9 15 8 23 13 ZZO 1023,4 13 0 0,0
20.04.2018 02:00:00 18,3 10,1 16,4 16,6 17,5 9,8 15 8 22 12 ZZO 1024,2 17 0 0,0
20.04.2018 01:00:00 18,4 10,2 16,6 17,1 18,0 9,8 14 8 24 13 ZO 1024,9 21 0 0,0
20.04.2018 00:00:00 18,7 10,1 16,3 17,7 18,5 9,8 12 6 19 11 ZZO 1025,1 25 0 0,0
19.04.2018 23:00:00 19,3 11,1 16,1 18,8 19,1 9,8 7 4 22 12 ZZO 1025,3 21 0 0,0
19.04.2018 22:00:00 20,3 11,6 18,4 20,0 19,6 9,7 16 9 25 14 ZO 1025,2 18 0 0,0
19.04.2018 21:00:00 - - - - - - - - - - - - - - 0,0
19.04.2018 20:00:00 - - - - - - - - - - - - - - -
19.04.2018 19:00:00 - - - - - - - - 20 11 - - - 60 0,0
19.04.2018 18:00:00 26,3 9,1 27,0 26,8 19,8 9,6 12 7 23 12 ZZO 1026,1 27 60 0,0
19.04.2018 17:00:00 27,3 7,6 28,9 27,3 19,2 9,6 14 7 23 12 ZZO 1026,6 24 60 0,0
19.04.2018 16:00:00 19,3 11,6 24,0 27,0 18,5 9,6 7 4 17 9 ZZO 1027,3 9 59 0,0
19.04.2018 15:00:00 20,1 11,9 24,2 26,7 17,5 9,6 5 3 15 8 NNO 1027,9 11 60 0,0
19.04.2018 14:00:00 25,2 10,3 28,4 25,2 16,4 9,5 11 6 18 10 ZZO 1028,2 17 60 0,0
19.04.2018 13:00:00 23,9 10,1 27,6 23,3 15,4 9,5 12 6 20 11 ZZO 1028,6 16 59 0,0
19.04.2018 12:00:00 22,9 11,2 26,1 20,8 14,5 9,5 11 6 21 11 ZZO 1029,0 16 60 0,0
19.04.2018 11:00:00 21,4 12,0 23,6 18,1 13,8 9,4 11 6 21 11 ZZO 1029,0 13 60 0,0
19.04.2018 10:00:00 18,9 11,7 20,8 15,5 13,4 9,4 13 7 20 11 ZO 1028,9 12 60 0,0
19.04.2018 09:00:00 15,6 10,3 16,8 13,4 13,3 9,4 14 8 24 13 ZO 1029,0 12 60 0,0
19.04.2018 08:00:00 14,0 9,2 13,8 12,4 13,5 9,3 16 9 26 14 ZO 1029,0 14 60 0,0
19.04.2018 07:00:00 13,2 9,3 11,9 12,3 13,8 9,3 16 9 26 14 ZO 1028,8 14 0 0,0
19.04.2018 06:00:00 13,6 9,6 12,3 12,6 14,1 9,3 18 10 26 14 ZO 1028,9 17 0 0,0
19.04.2018 05:00:00 13,5 9,7 12,0 12,9 14,4 9,2 16 9 24 13 ZO 1029,3 17 0 0,0
19.04.2018 04:00:00 14,0 9,9 12,4 13,3 14,8 9,2 14 8 25 13 OZO 1029,7 20 0 0,0
19.04.2018 03:00:00 14,4 10,0 13,0 13,7 15,2 9,2 18 10 29 16 ZO 1029,9 19 0 0,0
19.04.2018 02:00:00 13,3 9,8 11,8 14,3 15,6 9,1 14 8 22 12 ZO 1030,4 13 0 0,0
19.04.2018 01:00:00 15,0 9,9 13,5 14,9 16,1 9,1 15 8 24 13 OZO 1030,8 18 0 0,0
19.04.2018 00:00:00 15,5 9,4 14,0 15,6 16,6 9,1 14 7 24 13 OZO 1031,0 20 0 0,0
18.04.2018 23:00:00 16,5 9,1 14,8 16,5 17,1 9,1 12 6 20 11 OZO 1031,1 24 0 0,0
18.04.2018 22:00:00 16,5 9,1 14,9 17,5 17,7 9,0 13 7 20 11 O 1031,3 25 0 0,0
18.04.2018 21:00:00 17,5 9,0 16,0 19,0 18,2 9,0 13 7 23 12 O 1031,0 34 6 0,0
18.04.2018 20:00:00 18,1 10,2 16,9 21,2 18,5 9,0 12 7 19 11 O 1030,7 36 60 0,0
18.04.2018 19:00:00 19,7 9,5 19,6 23,4 18,5 9,0 12 7 17 9 O 1030,8 42 60 0,0
18.04.2018 18:00:00 19,2 9,4 20,3 25,0 18,2 9,0 14 8 18 10 ONO 1031,0 21 60 0,0
18.04.2018 17:00:00 22,2 9,1 25,4 26,1 17,6 9,0 8 4 15 8 ZW 1031,1 28 60 0,0
18.04.2018 16:00:00 22,0 9,5 25,6 26,0 16,7 9,0 10 5 17 9 ZZW 1031,3 19 59 0,0
18.04.2018 15:00:00 21,8 9,4 25,7 25,1 15,7 8,9 12 7 21 12 ZZW 1031,7 21 60 0,0
18.04.2018 14:00:00 20,1 7,8 23,4 23,5 14,6 8,9 15 8 23 12 ZZW 1031,7 13 60 0,0
18.04.2018 13:00:00 19,8 9,0 23,5 21,6 13,5 8,9 14 8 21 11 ZZW 1031,6 15 60 0,0
18.04.2018 12:00:00 18,9 8,6 21,8 19,2 12,5 8,9 15 8 21 11 Z 1031,5 17 60 0,0
18.04.2018 11:00:00 17,9 9,2 20,5 16,4 11,7 8,9 13 7 22 12 ZZW 1031,4 21 60 0,0
18.04.2018 10:00:00 15,9 10,0 18,0 13,8 11,2 8,8 11 6 19 11 ZZW 1030,9 16 60 0,0
18.04.2018 09:00:00 14,0 9,0 14,9 11,3 11,0 8,8 11 6 21 11 Z 1030,5 16 59 0,0
18.04.2018 08:00:00 12,5 8,4 12,3 10,0 11,1 8,8 14 7 20 11 Z 1030,0 14 60 0,0

tt = temperatuur
td = dauwpunt
tt 5cm = temperatuur 5cm
tt -5cm = temperatuur -5cm
tt -20cm = temperatuur -20cm
tt -100cm = temperatuur -100cm
ff = windsnelheid
fx = windstoten
dd = windrichting
ppp = luchtdruk
vv = zicht
sd = Zonneschijnduur
rr = neerslag

Weerstations in de omgeving